GFSNGP_925_spd_132.txt.gz
Wind_Speed
6 6 2 4 7 7 3 5 5 3 5 5 5 6 5 4 4 8 6 6 5 3 2 7 11 17 18 19 19 29 23 18 16 24 35 36 35 35 33 28 28 25 19 17
2 4 4 3 6 6 5 4 5 4 1 4 4 5 2 4 5 6 2 3 4 5 4 5 1 4 15 20 17 20 23 19 5 8 15 36 36 35 33 29 27 22 20 18
2 3 3 3 3 2 3 6 2 3 5 6 5 6 6 6 6 5 2 2 5 4 5 6 1 6 6 12 26 26 25 24 20 24 25 28 38 35 33 31 29 22 21 19
3 4 2 6 3 4 6 3 5 1 4 9 1 3 5 3 4 2 3 2 2 4 4 6 7 5 4 13 19 25 26 28 31 29 31 32 39 35 31 28 24 22 22 21
4 4 3 1 1 2 2 2 3 3 3 4 4 1 1 4 3 4 5 2 2 2 5 8 7 7 4 9 15 23 23 26 28 18 28 30 38 36 31 27 22 19 21 21
3 5 5 7 4 3 3 3 1 3 6 6 5 1 5 5 4 3 4 3 1 5 5 6 6 6 7 13 7 21 27 28 29 15 17 23 24 23 22 22 22 22 20 14
3 3 4 4 6 4 2 6 5 4 5 8 6 5 2 7 4 6 5 0 1 2 3 5 6 5 7 9 21 15 24 25 28 35 17 19 18 18 22 23 22 22 20 15
3 3 4 6 2 4 5 2 5 4 4 4 4 6 5 7 6 3 5 3 2 4 1 4 3 2 5 11 20 22 23 22 26 22 24 28 26 23 24 25 24 20 23 20
6 6 4 2 2 2 7 6 6 5 3 3 5 6 8 7 6 4 6 6 6 6 1 3 2 3 10 9 17 23 20 28 32 31 30 27 24 22 22 20 24 18 20 19
4 3 5 6 6 3 4 7 7 6 6 6 5 6 8 7 6 5 6 9 11 7 4 6 10 8 11 11 21 26 17 18 21 27 26 25 25 22 23 19 19 19 20 19
2 9 10 5 5 8 9 7 6 7 5 5 6 6 8 8 4 7 9 12 11 9 9 9 11 12 12 13 21 26 25 18 19 22 23 23 22 22 21 20 19 19 18 19
5 9 6 5 9 9 5 2 4 6 5 2 5 6 8 6 8 6 8 10 12 13 16 15 14 13 14 14 20 22 20 22 21 20 20 21 20 19 18 17 14 14 14 13
4 4 5 12 7 3 5 6 2 4 2 7 9 13 13 9 12 12 10 11 12 13 13 10 11 14 18 15 19 22 22 20 19 19 21 22 23 22 21 17 16 15 14 14
10 14 7 4 6 7 8 9 9 6 12 14 15 17 15 15 18 17 13 12 12 15 17 18 17 18 20 22 19 22 21 22 23 22 21 21 20 20 20 19 17 14 13 12
8 6 10 9 6 8 14 9 8 12 8 10 18 17 19 14 14 17 18 16 16 18 16 18 14 13 16 18 17 14 15 15 17 17 16 16 16 15 15 16 16 15 13 11
8 6 15 17 12 11 11 7 7 11 10 11 16 19 22 22 20 20 19 18 17 13 13 13 13 10 12 15 15 14 13 12 10 11 12 11 11 10 11 12 12 12 11 8
4 7 12 14 14 14 16 15 16 15 14 16 18 23 27 24 21 20 19 18 16 17 18 16 14 13 11 12 14 13 13 11 7 8 8 8 11 12 11 10 9 9 8 7
7 7 14 18 18 15 13 13 18 21 18 25 23 22 18 21 19 23 21 21 21 18 16 13 12 11 12 12 12 9 11 12 14 13 14 13 12 12 11 11 10 10 6 6
5 6 6 5 14 19 16 16 23 26 24 26 26 22 23 22 24 30 29 27 24 19 15 12 10 8 8 9 10 9 13 14 14 11 9 10 19 26 27 27 25 19 17 18
7 7 5 9 20 18 17 25 26 24 28 28 24 22 21 26 28 29 30 28 25 18 16 13 10 7 5 8 9 7 11 14 14 12 13 24 26 26 26 25 24 23 22 20
10 8 7 4 10 22 25 28 27 24 26 30 30 26 28 32 32 32 26 19 21 16 15 12 13 8 5 9 7 7 12 19 14 18 25 25 23 20 19 18 17 17 16 15
7 7 7 6 8 13 22 30 32 29 28 27 26 27 28 26 31 31 29 26 19 19 18 16 14 10 9 8 5 10 18 17 18 23 24 23 21 18 15 14 14 12 10 9
7 9 12 9 9 17 24 27 31 34 30 30 30 30 31 31 31 23 14 21 19 21 19 18 15 12 11 9 6 15 17 18 20 22 22 20 18 16 15 13 11 7 6 9
1 2 11 19 18 16 12 21 29 35 39 38 38 40 32 25 25 30 26 26 25 23 22 19 18 15 14 11 11 16 16 19 19 19 19 21 18 15 14 13 10 8 9 7
7 7 6 0 7 10 24 26 26 27 28 29 31 34 36 35 35 38 31 27 28 27 24 21 20 19 16 15 16 18 19 21 19 18 18 20 18 17 16 13 10 10 6 8
9 7 11 7 9 14 20 25 23 24 25 22 22 28 31 31 28 32 34 30 31 29 26 24 25 21 21 20 19 19 20 20 19 17 18 20 20 19 16 14 13 11 7 7
18 17 12 11 12 10 25 25 22 22 28 29 28 31 34 33 35 35 37 34 34 32 30 28 27 24 25 23 21 20 19 18 17 17 15 16 16 15 15 13 13 12 9 7

GFSNGP_925_spd_135.txt.gz
Wind_Speed
3 3 2 2 3 2 5 5 5 4 8 5 7 7 4 2 4 5 3 1 1 0 3 6 10 12 14 24 34 35 33 37 32 38 39 37 36 37 37 33 31 28 27 24
1 1 2 2 2 7 4 5 5 5 1 4 4 2 4 5 5 5 4 4 0 3 4 2 6 9 13 21 28 30 28 32 34 35 38 37 35 35 37 38 36 33 30 25
1 2 4 3 3 4 3 2 5 3 6 5 6 8 4 3 2 2 2 3 4 4 4 7 7 6 8 10 19 24 29 32 34 30 31 27 29 30 32 37 37 34 30 29
3 2 1 6 4 3 7 3 1 2 4 5 4 3 5 5 6 5 4 2 3 4 9 12 11 9 10 11 16 23 25 26 35 38 28 22 14 18 29 30 33 32 29 26
5 4 4 1 4 5 5 3 3 4 2 4 4 5 6 8 7 6 5 3 4 5 6 10 9 10 12 13 14 21 25 27 28 29 33 30 32 20 22 28 31 31 28 24
3 5 6 7 2 5 4 3 7 6 7 7 6 1 6 8 5 6 9 5 1 4 5 6 8 10 9 12 16 15 23 30 30 34 29 24 26 20 23 25 27 26 24 21
3 3 5 6 4 3 5 7 7 7 7 6 6 5 2 7 5 4 3 5 3 2 6 8 7 4 7 11 16 19 18 30 29 26 20 24 21 23 28 29 26 23 23 18
3 4 4 6 5 6 7 1 5 5 4 5 1 4 6 6 5 4 4 1 2 2 4 5 3 4 7 11 15 18 22 13 22 24 19 20 25 24 26 30 29 25 25 20
6 6 5 6 5 5 6 6 5 4 3 2 4 5 7 6 3 3 4 3 4 5 2 2 1 6 9 12 14 18 18 37 28 26 23 23 24 30 28 28 30 23 16 23
5 3 2 2 3 2 6 5 4 3 6 6 6 7 7 6 4 3 3 1 1 2 3 3 4 8 9 11 13 14 20 28 30 28 28 20 30 26 27 25 28 25 16 24
3 3 2 5 5 2 1 5 8 6 4 6 8 7 6 6 5 4 5 5 7 6 5 6 6 8 9 14 14 14 14 18 25 28 28 26 27 24 26 25 27 29 23 23
4 9 5 6 4 4 5 3 6 6 5 5 5 7 8 6 11 7 6 8 11 11 11 8 8 10 9 14 16 15 14 15 21 22 22 26 25 23 22 22 21 20 18 16
5 8 2 2 6 5 3 5 6 7 7 9 9 13 10 5 8 8 7 6 8 8 8 12 13 13 10 14 18 18 14 13 16 20 20 22 23 22 25 20 19 19 19 18
11 10 5 1 5 7 5 6 8 7 8 11 12 14 13 13 14 12 10 6 8 12 13 16 19 16 13 14 15 18 16 14 14 17 18 19 22 24 25 24 21 18 16 16
11 2 7 9 7 6 5 6 7 6 5 7 14 16 17 12 11 12 10 9 10 12 11 12 14 15 17 17 17 17 17 18 18 18 18 19 19 18 19 20 19 19 16 13
5 7 9 12 10 9 7 7 7 7 6 6 10 14 17 17 14 13 12 12 13 11 9 10 11 11 13 14 14 13 13 14 15 14 15 16 16 16 15 15 15 15 13 11
7 6 5 5 10 12 13 11 11 11 8 10 14 20 20 19 16 15 15 14 12 12 12 11 10 9 11 10 12 14 13 11 12 12 13 12 13 13 12 12 11 9 7 9
7 7 14 17 15 12 8 8 9 13 11 18 22 23 19 18 15 20 19 15 12 12 12 11 10 8 7 10 9 10 11 9 10 12 9 9 9 9 10 9 8 8 8 11
3 4 13 13 16 14 12 11 16 19 20 21 22 20 23 24 24 25 22 19 18 17 16 13 10 9 9 11 9 10 11 14 12 12 12 13 13 13 15 16 16 15 16 17
5 3 11 9 9 13 12 20 21 20 24 23 21 21 20 25 26 24 24 23 28 25 19 15 12 10 10 10 9 10 16 15 13 15 18 22 25 25 24 22 21 21 22 21
8 8 8 9 12 24 23 22 23 20 25 28 26 24 26 26 29 26 23 17 28 22 17 17 15 12 11 13 13 12 17 16 17 22 28 27 25 24 23 21 20 20 18 15
7 6 7 12 10 14 25 25 27 25 26 27 26 22 21 23 26 28 29 27 28 23 20 18 16 14 12 14 12 14 20 22 24 29 28 26 25 22 20 17 16 15 13 12
4 5 8 9 9 10 22 25 26 28 28 29 28 28 30 31 31 22 14 30 23 26 24 20 18 15 14 14 11 19 23 24 27 29 28 25 22 20 18 18 18 15 15 16
6 7 3 7 12 7 7 22 27 30 34 37 38 41 31 24 25 35 29 27 27 24 26 23 20 17 15 14 12 20 23 26 30 30 28 26 23 20 18 17 15 14 16 14
9 7 6 5 4 7 18 24 25 24 25 25 26 28 36 37 33 37 36 28 29 27 26 23 22 19 19 17 16 20 23 26 29 29 28 26 24 21 18 16 16 17 16 14
7 7 8 7 8 8 10 16 16 21 23 20 21 27 31 33 32 28 38 34 32 32 29 27 25 25 22 20 19 23 25 26 28 29 30 28 25 23 20 17 15 14 12 12
7 7 8 5 3 4 9 18 16 16 20 19 25 33 35 33 35 36 34 39 37 37 34 32 31 30 27 24 25 27 28 29 27 26 28 28 25 22 21 19 17 14 11 11

GFSNGP_925_spd_138.txt.gz
Wind_Speed
2 4 3 4 5 7 6 5 5 5 8 7 7 7 6 5 3 3 2 2 4 4 4 4 5 6 8 18 21 31 37 31 42 39 36 33 35 35 37 39 38 33 30 27
2 1 3 3 2 6 4 4 2 5 4 4 4 4 5 6 3 3 2 3 4 5 6 8 9 8 8 9 9 13 24 32 38 27 35 37 34 32 34 36 39 36 33 29
2 2 3 3 6 4 3 3 7 5 7 3 4 7 4 5 5 5 5 3 4 3 5 6 9 8 9 9 9 10 15 24 30 30 34 44 45 36 30 37 38 37 38 33
4 2 2 6 4 4 4 3 3 2 4 5 6 3 4 5 6 6 6 5 4 3 2 4 5 6 8 9 8 11 16 19 21 28 35 38 37 35 30 33 37 34 36 37
5 4 4 1 4 6 6 7 5 5 6 3 3 2 5 7 6 3 4 5 5 4 2 2 2 5 6 7 11 12 14 19 22 26 32 33 31 33 32 31 30 33 32 31
3 5 6 8 4 4 4 3 9 7 7 6 5 1 5 3 3 3 7 7 6 2 3 3 3 5 7 7 13 15 19 23 25 26 27 31 31 33 30 29 25 28 27 25
3 3 6 6 4 4 5 7 6 9 5 7 5 3 2 4 4 5 5 4 3 2 4 5 4 4 5 10 12 16 21 26 31 30 29 27 28 27 27 23 22 24 24 20
4 4 4 7 5 8 7 2 5 5 4 5 5 4 5 4 4 4 4 4 3 3 4 5 4 1 4 8 12 17 21 25 12 15 22 23 25 25 25 23 25 25 28 24
7 7 4 7 3 4 4 3 3 5 4 6 5 5 6 4 4 2 2 2 2 3 4 2 2 3 2 5 12 18 21 24 23 14 15 22 21 21 25 27 29 24 25 25
5 3 3 3 2 4 3 3 3 3 5 5 5 7 7 5 4 3 3 3 3 3 3 3 4 6 6 4 10 15 19 23 20 24 23 20 21 20 17 23 25 26 27 26
0 2 1 4 3 5 6 6 6 5 4 5 10 8 6 5 4 4 3 1 4 6 5 4 5 8 9 9 9 17 15 17 21 23 28 28 28 27 22 21 17 26 33 36
4 8 5 4 7 8 7 6 6 6 6 4 5 7 6 5 6 7 7 6 8 5 7 7 8 8 8 8 10 15 14 15 18 21 24 26 26 34 30 33 30 33 33 34
2 7 3 6 8 6 7 6 6 7 6 9 6 9 9 5 6 9 8 7 6 7 6 8 8 9 10 9 11 12 13 11 13 15 19 21 22 23 26 29 27 26 27 28
1 8 4 3 5 7 7 7 11 8 10 11 11 12 12 8 8 9 8 7 10 12 10 9 8 9 10 11 11 12 14 9 9 10 14 18 21 24 27 24 24 27 25 25
8 4 4 9 9 7 8 9 7 6 6 7 13 13 15 10 9 10 8 9 12 13 14 14 14 13 12 11 14 16 17 14 15 13 13 17 22 23 25 26 25 23 21 20
5 3 8 9 10 9 9 7 6 7 7 6 10 13 16 16 15 12 10 11 13 11 11 14 13 11 12 13 14 16 17 16 15 16 17 17 18 20 21 23 22 20 19 17
3 4 4 5 8 11 11 8 7 8 7 9 13 17 17 16 14 12 11 11 10 8 8 10 11 11 12 11 11 12 12 12 12 13 13 13 14 16 17 18 18 17 16 14
6 5 7 12 12 9 8 8 9 11 7 16 18 18 17 16 12 16 15 12 10 9 9 9 9 9 9 10 11 10 11 11 11 13 11 11 11 11 12 14 14 15 14 10
6 7 8 9 10 11 9 10 13 18 18 20 20 18 20 20 18 17 15 13 12 11 12 10 8 6 9 10 9 10 9 9 10 10 11 12 12 12 13 14 14 14 16 15
8 8 8 12 15 13 9 14 18 19 22 24 22 17 16 19 22 20 18 18 19 17 13 12 10 7 7 9 8 9 10 11 12 12 13 13 13 15 16 17 20 18 19 19
9 8 7 9 10 19 19 21 20 18 25 26 24 21 23 24 25 24 19 13 24 19 15 15 12 11 10 10 10 10 14 14 12 12 14 15 17 19 20 20 20 20 19 18
6 7 7 10 10 13 21 24 27 20 24 25 24 22 21 22 25 26 28 26 23 21 20 18 16 14 13 12 15 14 17 16 16 17 19 21 22 22 21 21 21 20 18 16
6 7 10 8 9 15 15 20 24 28 26 27 27 28 29 28 28 20 12 32 28 23 24 20 19 17 15 15 16 16 18 21 22 23 25 26 25 23 21 19 17 16 15 14
4 6 7 9 11 10 7 17 24 28 32 32 35 40 30 24 25 34 30 20 30 27 27 25 22 19 17 17 18 17 21 25 25 27 28 26 23 20 17 17 16 14 14 14
3 7 5 7 7 6 14 13 18 18 22 25 28 30 34 32 30 33 38 35 26 30 29 28 25 23 22 20 19 18 23 26 27 29 30 28 25 22 19 17 15 16 17 16
0 4 3 4 3 4 4 11 13 17 17 17 20 26 29 30 34 28 30 38 33 31 33 32 31 29 27 25 24 21 24 28 28 30 31 29 27 24 21 18 17 19 19 19
2 1 3 4 6 6 7 10 13 14 21 21 20 21 24 24 25 28 32 33 38 36 37 35 36 34 32 29 28 27 26 28 30 32 33 31 30 27 24 21 19 19 19 20

GFSNGP_925_spd_141.txt.gz
Wind_Speed
2 5 5 11 12 11 10 6 8 5 10 9 14 12 7 4 2 2 3 4 5 4 4 4 3 1 1 6 12 17 21 24 27 25 21 25 24 23 23 24 27 28 27 25
3 4 3 6 7 9 8 5 5 5 8 3 6 4 5 5 5 4 3 3 4 5 6 5 5 4 3 1 3 6 14 21 24 23 20 24 26 24 21 23 24 22 25 26
6 3 4 5 13 11 6 6 7 8 4 8 7 8 6 6 6 5 5 5 4 5 5 5 5 4 3 2 1 3 8 12 17 21 24 27 27 25 24 25 22 21 25 25
5 8 6 1 1 4 8 5 8 3 5 4 2 3 4 6 6 7 7 6 6 6 5 3 3 3 2 3 3 3 6 10 15 19 24 27 27 24 25 26 25 25 25 26
6 6 3 3 5 7 8 7 9 6 5 3 3 1 1 1 4 2 4 4 6 6 5 2 1 2 3 3 4 7 9 11 13 17 23 26 28 28 27 25 27 27 25 26
4 6 8 6 7 6 5 7 11 11 7 6 5 4 2 5 3 4 6 7 7 5 3 2 2 1 2 3 7 7 10 16 20 24 25 30 30 30 30 28 27 23 21 22
6 4 3 5 9 9 9 2 4 12 8 9 5 2 2 3 5 5 6 7 6 4 4 3 3 3 1 3 5 8 11 15 19 24 30 32 31 30 28 27 24 25 25 20
3 3 6 12 10 9 4 3 3 7 9 8 4 4 3 3 4 5 6 7 6 6 6 5 4 4 3 1 5 8 14 16 19 20 17 20 26 24 25 23 26 24 22 19
6 6 2 17 2 5 5 6 5 8 7 6 7 6 6 6 6 5 6 6 5 5 5 5 6 6 5 1 3 8 14 19 21 16 12 1 15 19 21 25 25 23 26 25
4 6 7 15 4 7 5 6 7 5 9 8 8 8 7 5 4 2 3 3 4 5 6 7 6 8 5 3 3 7 12 20 23 22 21 18 17 9 15 15 21 21 26 24
2 1 4 9 6 8 9 9 10 9 9 9 9 8 7 5 4 3 3 2 3 4 5 5 6 9 6 4 5 10 9 17 21 24 23 28 29 24 24 13 13 18 20 22
4 8 3 7 14 12 12 10 10 10 10 9 11 10 8 7 8 6 6 3 4 3 3 4 7 9 7 5 7 5 16 22 18 23 21 23 32 38 35 33 32 34 32 32
4 6 7 8 14 13 10 11 10 10 12 13 11 11 11 9 9 7 5 4 4 5 6 6 8 10 8 6 9 3 17 15 13 16 15 19 27 25 31 40 40 39 40 37
4 8 7 9 7 11 9 10 12 11 14 14 12 10 11 9 9 7 5 5 5 5 7 9 10 10 10 9 8 8 12 12 13 12 17 16 17 23 26 26 23 27 28 29
7 4 1 8 14 11 11 13 11 10 12 11 11 12 11 10 9 9 8 8 8 9 8 10 13 12 11 11 10 13 9 12 15 13 15 21 23 19 21 24 26 24 23 23
10 6 9 11 13 13 14 12 11 11 11 11 13 13 12 10 12 11 10 9 9 10 9 10 10 11 14 15 13 12 13 15 14 14 14 14 15 16 18 16 15 15 15 16
3 6 8 10 13 15 15 12 11 11 10 12 15 14 13 14 13 13 11 9 9 9 9 9 9 9 9 11 13 13 13 11 13 12 12 13 15 15 15 14 15 14 14 15
6 2 5 7 12 13 11 11 12 14 12 16 16 16 15 16 13 14 14 12 10 9 8 9 10 10 9 9 9 10 10 11 11 11 12 12 12 13 13 13 13 13 12 13
8 7 8 10 12 10 12 12 16 17 16 18 18 17 17 16 16 16 15 13 11 10 10 10 11 10 9 10 10 10 10 10 10 9 9 12 12 11 12 12 12 11 10 10
8 10 10 11 12 16 11 14 15 16 16 17 17 15 15 15 16 17 17 16 15 12 12 12 11 9 10 11 10 8 9 9 10 9 9 9 8 10 10 10 11 11 10 10
10 10 11 9 10 18 20 18 18 17 19 19 19 18 19 17 18 17 16 14 17 15 15 16 13 9 10 10 10 9 9 10 10 10 10 9 9 9 10 10 11 11 11 11
7 8 9 10 12 17 20 20 19 17 19 20 19 17 17 18 18 19 19 17 13 20 16 15 15 14 11 13 10 9 11 12 10 9 9 9 10 11 13 13 13 13 12 12
6 7 7 8 10 13 16 18 20 21 22 23 23 23 24 21 21 19 12 23 18 17 18 16 17 17 16 13 12 11 12 13 13 12 11 12 13 14 15 15 14 14 14 13
3 5 9 10 8 7 9 18 20 20 21 22 24 27 23 20 20 23 21 12 22 24 21 18 22 20 19 14 13 13 14 14 14 13 13 15 15 16 15 15 13 12 12 13
6 3 2 3 6 7 10 9 10 11 15 18 19 21 24 25 25 23 24 22 22 22 22 23 24 22 21 16 14 15 15 15 16 16 17 18 18 17 15 14 13 13 13 14
7 6 4 2 4 5 6 7 10 11 13 15 17 19 21 24 25 22 19 24 21 26 19 19 27 27 24 20 18 16 16 16 18 20 19 19 19 18 16 15 14 14 15 15
11 10 8 5 4 6 7 7 9 11 13 15 15 14 16 17 19 20 21 18 21 18 20 17 21 28 25 22 22 17 17 16 19 19 21 20 20 20 18 17 16 16 16 17

GFSNGP_925_spd_144.txt.gz
Wind_Speed
18 9 8 16 16 14 16 15 12 5 14 9 11 15 14 11 9 8 8 8 7 6 5 5 5 4 5 6 9 12 14 18 21 19 18 17 19 20 21 21 22 23 24 25
14 12 13 12 10 13 15 15 10 14 11 6 0 6 10 11 12 10 8 8 8 7 6 5 5 3 3 2 3 5 10 14 16 17 16 19 20 20 21 22 23 22 24 26
15 12 11 13 14 14 15 13 13 14 13 8 8 10 12 11 8 7 8 9 8 7 6 6 5 3 2 1 1 1 4 7 10 13 16 18 19 20 22 24 24 25 24 25
8 9 15 4 2 9 14 14 13 11 4 5 5 6 5 3 6 6 5 7 7 7 7 7 6 4 1 1 1 1 3 5 8 11 15 17 19 22 23 25 27 28 27 27
7 14 7 8 6 8 10 11 11 11 8 9 7 6 6 3 3 4 5 5 7 7 7 6 5 3 2 1 1 3 6 9 10 12 15 18 21 24 26 26 27 27 29 28
10 17 19 9 8 6 6 10 10 13 11 10 8 8 6 8 7 7 7 8 9 9 8 7 6 4 2 1 2 5 9 12 15 17 19 20 22 25 27 28 30 30 30 30
11 12 8 5 11 10 11 3 7 14 11 8 9 3 9 8 7 6 7 7 7 7 7 7 6 5 3 1 3 5 8 12 15 15 17 21 26 27 27 28 28 28 27 26
12 14 9 13 13 12 3 5 6 5 7 8 6 6 5 5 5 5 6 7 7 6 5 6 6 6 5 2 2 4 8 12 14 15 14 17 20 22 24 26 26 22 21 22
9 8 4 17 7 13 4 9 7 8 8 8 7 6 5 5 5 5 5 5 6 6 5 6 5 6 6 4 2 5 9 13 15 17 15 14 12 10 20 21 18 20 23 22
4 7 8 15 3 8 7 7 8 6 8 7 6 5 5 4 3 4 4 3 4 4 5 6 6 7 4 5 3 5 8 13 14 17 20 21 18 18 14 8 11 15 15 14
7 2 6 13 9 11 9 8 8 7 7 6 6 6 6 6 6 5 5 4 5 6 7 8 8 7 8 5 5 7 5 11 18 21 18 23 34 24 27 20 16 21 19 16
9 3 1 10 14 12 12 10 10 10 8 6 7 9 9 8 8 7 6 6 6 7 8 8 9 10 10 8 7 7 6 9 17 19 17 18 27 34 39 36 35 35 36 38
1 3 2 3 15 12 11 11 10 8 8 10 10 11 10 9 9 7 7 7 6 6 7 8 10 13 12 9 7 7 8 9 16 18 15 14 17 27 30 42 43 44 44 47
2 8 5 15 8 12 11 10 10 10 12 12 12 11 11 10 10 7 5 6 7 7 8 9 12 10 10 9 7 8 9 11 13 13 11 12 16 16 19 21 27 28 33 35
9 1 1 8 15 12 11 11 11 12 12 11 11 11 11 10 9 7 7 9 10 9 8 8 10 11 10 7 7 8 8 9 12 15 17 17 16 17 18 22 23 25 26 26
1 0 7 11 12 12 12 12 11 12 12 10 10 11 11 10 10 10 9 9 11 10 11 11 10 12 13 11 10 10 10 14 14 17 18 15 15 15 16 18 18 18 16 13
7 4 4 7 10 11 11 10 9 11 11 10 11 12 11 11 12 12 11 9 10 11 11 12 13 14 15 14 12 12 13 12 14 13 13 13 13 13 15 14 14 15 15 14
7 7 10 11 12 12 11 10 9 11 10 13 13 13 12 13 11 13 13 12 12 11 10 11 12 13 13 12 11 12 12 12 11 12 13 13 13 14 13 12 14 15 16 16
11 11 13 11 11 11 11 10 11 11 12 14 14 13 13 14 13 15 15 15 13 12 12 11 14 12 11 11 11 10 11 11 11 11 12 13 11 11 14 15 15 14 15 15
14 13 13 11 13 13 10 12 12 13 14 15 15 14 14 14 15 16 17 16 14 12 15 13 14 11 10 11 10 9 9 10 10 11 12 12 10 11 12 12 14 13 13 12
12 10 10 9 10 13 15 15 16 16 17 17 17 16 16 16 17 17 17 15 17 12 15 17 14 12 12 12 13 11 11 10 10 10 12 14 12 13 13 13 14 14 13 12
7 9 8 7 8 7 16 20 20 18 19 19 18 17 18 18 19 20 19 18 17 19 18 17 16 14 12 15 14 12 11 11 12 11 11 11 12 12 13 15 14 13 12 12
5 6 9 13 10 12 18 21 21 22 22 22 22 22 22 20 21 19 13 23 17 23 22 19 19 19 19 14 14 13 13 13 13 12 11 11 14 15 15 16 16 15 13 12
6 3 5 5 10 10 11 17 21 22 21 21 22 22 21 20 20 22 19 17 27 21 26 21 22 24 21 16 14 13 15 15 16 14 13 11 13 15 16 15 15 13 12 12
8 5 3 6 7 6 7 9 16 16 17 16 17 20 23 24 23 20 21 19 22 28 25 23 24 24 23 18 16 15 15 16 17 17 16 15 15 15 15 15 14 12 11 13
5 4 3 3 2 5 10 10 12 13 13 14 15 16 17 19 22 22 19 20 21 25 23 23 25 26 24 22 19 17 16 16 18 19 19 18 17 17 17 15 13 13 14 15
5 4 6 3 2 2 1 2 5 9 11 11 12 11 12 14 16 17 20 21 21 21 23 22 21 25 25 23 22 20 18 17 18 20 22 21 21 20 20 19 16 15 14 15

GFSNGP_925_spd_147.txt.gz
Wind_Speed
22 8 20 17 19 23 22 17 13 10 11 12 16 14 15 12 10 10 10 11 10 10 9 10 10 9 8 9 10 12 14 16 21 20 18 20 20 20 21 20 23 23 23 23
23 24 15 18 18 20 18 14 17 13 12 7 7 11 14 18 15 11 12 11 11 11 10 11 11 9 8 8 8 9 11 13 15 16 20 20 22 22 23 24 25 26 26 26
21 21 17 17 17 16 13 13 14 15 9 9 11 6 8 11 14 13 11 11 11 10 10 10 10 9 8 6 5 5 5 5 6 6 9 17 22 25 26 25 26 26 27 27
16 15 20 15 18 14 13 11 12 10 12 3 5 6 8 7 14 11 10 10 9 9 10 9 9 8 6 6 4 3 2 2 4 6 9 12 14 18 20 24 26 28 30 30
13 9 13 19 7 14 8 10 11 11 7 7 5 5 3 3 0 8 8 8 8 9 10 8 8 6 5 5 4 2 1 3 7 9 12 14 16 19 21 23 26 28 29 30
9 15 19 24 16 10 4 10 11 9 10 10 9 10 8 12 9 9 9 10 9 10 10 9 7 6 5 5 3 2 5 7 10 13 15 18 19 20 22 23 27 27 28 30
17 15 23 15 10 6 9 2 10 10 9 10 10 6 11 9 8 8 9 9 8 9 7 5 7 6 5 5 7 5 6 9 11 12 15 18 20 21 21 25 27 28 28 27
18 21 17 17 21 11 8 8 7 3 7 6 8 9 9 8 7 7 7 10 7 7 7 6 5 7 7 7 7 6 7 10 12 15 15 15 17 22 24 26 25 26 27 26
13 15 10 10 13 7 6 8 6 5 6 5 7 8 7 6 5 5 3 6 5 5 9 7 7 7 8 11 6 8 10 12 13 16 18 18 17 17 19 17 22 22 19 13
7 4 2 15 6 11 5 9 6 5 8 6 7 5 5 4 4 4 2 5 5 8 9 9 8 10 9 10 9 10 9 12 13 16 15 21 24 19 18 14 10 5 6 9
16 6 4 18 4 8 7 8 7 5 5 4 3 5 4 4 4 5 6 7 8 9 9 10 10 10 13 12 11 8 8 11 13 15 17 21 30 26 21 21 9 13 13 12
11 12 5 14 8 7 9 8 8 8 7 4 3 5 6 7 7 7 6 7 7 7 9 11 13 12 15 13 13 9 10 12 14 15 15 29 22 25 33 31 28 26 24 23
3 12 7 18 13 10 9 8 9 8 7 6 7 10 10 9 10 10 8 7 8 9 9 10 11 13 17 13 11 9 9 10 13 17 17 18 16 18 22 35 43 45 44 44
4 6 7 18 11 12 13 10 7 8 8 8 11 12 12 11 11 8 9 7 8 8 9 10 12 12 16 11 10 10 9 13 11 13 13 13 11 13 14 14 16 25 36 40
3 8 8 9 9 13 13 11 10 9 9 10 11 11 12 11 10 9 10 9 9 9 9 9 11 10 12 12 10 10 9 11 13 12 14 12 11 13 13 14 17 17 21 26
6 6 8 11 14 13 13 11 9 10 11 10 9 11 12 11 11 10 12 12 12 10 10 11 10 10 8 10 9 8 15 13 15 13 14 13 15 14 17 13 13 11 12 16
2 8 8 12 11 10 9 10 9 11 10 9 10 12 11 11 11 11 10 10 10 12 13 12 15 13 12 10 11 12 13 15 17 15 13 12 12 14 12 11 9 9 10 10
9 7 5 5 6 9 10 9 9 10 9 12 13 13 12 12 10 12 11 12 11 11 11 12 16 16 15 14 12 13 13 14 14 12 12 11 10 11 11 11 10 11 12 11
10 5 1 5 4 7 8 8 10 11 12 13 14 13 13 13 12 13 13 13 12 11 12 13 14 14 13 12 11 13 13 12 11 11 10 11 12 11 10 11 12 13 14 14
10 6 5 2 8 8 9 11 12 13 14 15 14 13 13 14 14 14 13 13 12 10 14 13 16 13 12 12 15 11 12 13 13 12 11 13 11 10 12 12 12 12 14 13
14 12 9 1 12 9 12 13 14 14 14 15 15 14 15 15 15 15 14 13 13 10 14 17 16 13 13 13 14 12 12 12 13 13 15 13 10 12 13 13 13 14 13 12
13 11 12 17 14 16 14 12 13 14 15 15 15 15 15 15 16 17 16 15 16 16 15 16 17 14 12 16 15 14 11 11 11 12 12 14 15 14 13 14 15 14 13 12
8 8 10 14 12 12 11 10 10 13 15 18 18 18 18 17 18 16 12 20 16 23 20 18 18 18 15 13 14 15 13 13 13 14 14 14 14 15 14 15 17 15 13 12
6 9 10 9 8 12 9 4 10 14 18 18 19 19 19 17 17 18 16 17 24 21 23 21 21 23 20 18 15 15 15 14 16 16 15 14 15 17 18 17 17 16 15 13
2 6 9 4 2 4 10 18 26 24 22 22 20 19 20 21 20 19 20 19 25 26 24 24 23 26 23 21 18 17 17 17 17 17 18 16 17 16 17 18 18 18 16 15
4 3 5 10 7 13 16 16 16 20 17 17 19 18 19 21 20 20 19 19 20 29 24 23 25 29 26 26 24 22 20 19 19 20 20 20 18 19 18 19 19 18 18 16
5 0 5 8 11 8 7 14 18 13 14 15 13 13 30 22 16 15 15 18 20 22 24 25 26 29 30 29 29 26 24 22 21 21 22 23 22 22 21 21 20 19 18 18